| time (UTC) | temp C | wind direction | speed KPH | gust KPH | rain 1hr cm | rain 24hr cm | rain mn cm | humidity % | barometer mb |
| 20260508054431 | 15 | 118 | 3.2 | 9.7 | 0.00 | 0.00 | 0.00 | 92 | 1016.0 |
| 20260508053427 | 15 | 111 | 3.2 | 6.4 | 0.00 | 0.00 | 0.00 | 91 | 1016.0 |
| 20260508052929 | 15 | 121 | 3.2 | 6.4 | 0.00 | 0.00 | 0.00 | 91 | 1016.1 |
| 20260508052426 | 15 | 148 | 1.6 | 8.0 | 0.00 | 0.00 | 0.00 | 91 | 1016.0 |
| 20260508051927 | 15 | 149 | 1.6 | 8.0 | 0.00 | 0.00 | 0.00 | 91 | 1016.1 |
| 20260508051427 | 15 | 157 | 1.6 | 4.8 | 0.00 | 0.00 | 0.00 | 91 | 1016.1 |
| 20260508050925 | 15 | 157 | 1.6 | 8.0 | 0.00 | 0.00 | 0.00 | 91 | 1016.2 |
| 20260508045926 | 15 | 172 | 3.2 | 9.7 | 0.00 | 0.00 | 0.00 | 91 | 1016.1 |
| 20260508045426 | 15 | 172 | 3.2 | 9.7 | 0.00 | 0.00 | 0.00 | 91 | 1016.0 |
| 20260508044426 | 15 | 176 | 0.0 | 4.8 | 0.00 | 0.00 | 0.00 | 91 | 1016.0 |
| 20260508043927 | 15 | 184 | 0.0 | 1.6 | 0.00 | 0.00 | 0.00 | 91 | 1016.0 |
| 20260508043425 | 15 | 184 | 1.6 | 8.0 | 0.00 | 0.00 | 0.00 | 91 | 1015.8 |
| 20260508042927 | 15 | 184 | 3.2 | 8.0 | 0.00 | 0.00 | 0.00 | 91 | 1015.7 |
| 20260508042426 | 15 | 197 | 3.2 | 8.0 | 0.00 | 0.00 | 0.00 | 91 | 1015.7 |
| 20260508041427 | 15 | 202 | 3.2 | 9.7 | 0.00 | 0.00 | 0.00 | 91 | 1015.5 |
| 20260508040426 | 15 | 200 | 1.6 | 4.8 | 0.00 | 0.00 | 0.00 | 91 | 1015.3 |
| 20260508035927 | 15 | 196 | 3.2 | 8.0 | 0.00 | 0.00 | 0.00 | 91 | 1015.3 |
| 20260508034927 | 15 | 198 | 3.2 | 8.0 | 0.00 | 0.00 | 0.00 | 91 | 1015.3 |
| 20260508034427 | 15 | 193 | 4.8 | 8.0 | 0.00 | 0.00 | 0.00 | 90 | 1015.1 |
| 20260508033926 | 15 | 198 | 4.8 | 8.0 | 0.00 | 0.00 | 0.00 | 90 | 1015.1 |
| 20260508033426 | 15 | 228 | 4.8 | 11.3 | 0.00 | 0.00 | 0.00 | 90 | 1015.1 |
| 20260508031925 | 15 | 179 | 4.8 | 9.7 | 0.00 | 0.00 | 0.00 | 88 | 1015.0 |
| 20260508030926 | 16 | 212 | 4.8 | 9.7 | 0.00 | 0.00 | 0.00 | 87 | 1014.7 |
| 20260508025925 | 16 | 197 | 3.2 | 9.7 | 0.00 | 0.00 | 0.00 | 86 | 1014.7 |
| 20260508025427 | 16 | 195 | 3.2 | 9.7 | 0.00 | 0.00 | 0.00 | 85 | 1014.6 |
| 20260508024922 | 16 | 203 | 4.8 | 9.7 | 0.00 | 0.00 | 0.00 | 84 | 1014.5 |
| 20260508023921 | 17 | 197 | 3.2 | 9.7 | 0.00 | 0.00 | 0.00 | 82 | 1014.3 |
| 20260508023421 | 17 | 166 | 4.8 | 9.7 | 0.00 | 0.00 | 0.00 | 82 | 1014.3 |
| 20260508022923 | 17 | 186 | 4.8 | 12.9 | 0.00 | 0.00 | 0.00 | 81 | 1014.1 |
| 20260508022422 | 17 | 207 | 6.4 | 12.9 | 0.00 | 0.00 | 0.00 | 80 | 1014.1 |
| 20260508021922 | 18 | 217 | 4.8 | 9.7 | 0.00 | 0.00 | 0.00 | 79 | 1014.0 |
| 20260508021421 | 18 | 210 | 4.8 | 12.9 | 0.00 | 0.00 | 0.00 | 77 | 1014.1 |
| 20260508020923 | 19 | 215 | 6.4 | 12.9 | 0.00 | 0.00 | 0.00 | 76 | 1014.0 |
| 20260508020423 | 20 | 204 | 4.8 | 9.7 | 0.00 | 0.00 | 0.00 | 74 | 1014.0 |
| 20260508015922 | 20 | 189 | 4.8 | 8.0 | 0.00 | 0.00 | 0.00 | 71 | 1014.0 |
| 20260508014921 | 21 | 213 | 6.4 | 11.3 | 0.00 | 0.00 | 0.00 | 70 | 1014.1 |
| 20260508014421 | 21 | 196 | 6.4 | 11.3 | 0.00 | 0.00 | 0.00 | 69 | 1014.1 |
| 20260508013924 | 21 | 196 | 6.4 | 11.3 | 0.00 | 0.00 | 0.00 | 69 | 1014.1 |
| 20260508013423 | 22 | 234 | 6.4 | 12.9 | 0.00 | 0.00 | 0.00 | 69 | 1014.1 |
| 20260508012922 | 22 | 192 | 8.0 | 14.5 | 0.00 | 0.00 | 0.00 | 68 | 1014.1 |
| 20260508012421 | 22 | 192 | 9.7 | 14.5 | 0.00 | 0.00 | 0.00 | 66 | 1014.1 |
| 20260508011922 | 22 | 198 | 8.0 | 12.9 | 0.00 | 0.00 | 0.00 | 66 | 1014.1 |
| 20260508010910 | 22 | 168 | 8.0 | 16.1 | 0.00 | 0.00 | 0.00 | 67 | 1014.1 |
| 20260508005906 | 23 | 214 | 8.0 | 12.9 | 0.00 | 0.00 | 0.00 | 66 | 1014.1 |
| 20260508004904 | 23 | 202 | 6.4 | 16.1 | 0.00 | 0.00 | 0.00 | 65 | 1014.1 |
| 20260508004403 | 23 | 209 | 6.4 | 16.1 | 0.00 | 0.00 | 0.00 | 66 | 1014.0 |
| 20260508003900 | 23 | 240 | 8.0 | 14.5 | 0.00 | 0.00 | 0.00 | 66 | 1013.9 |
| 20260508003401 | 23 | 231 | 8.0 | 14.5 | 0.00 | 0.00 | 0.00 | 65 | 1013.9 |
| 20260508002900 | 23 | 194 | 8.0 | 14.5 | 0.00 | 0.00 | 0.00 | 65 | 1013.9 |
| 20260508002358 | 23 | 246 | 8.0 | 12.9 | 0.00 | 0.00 | 0.00 | 65 | 1013.8 |
| 20260508001858 | 23 | 190 | 6.4 | 12.9 | 0.00 | 0.00 | 0.00 | 65 | 1013.9 |
| 20260508001357 | 23 | 202 | 6.4 | 14.5 | 0.00 | 0.00 | 0.00 | 66 | 1013.9 |
| 20260508000858 | 23 | 246 | 6.4 | 14.5 | 0.00 | 0.00 | 0.00 | 66 | 1014.0 |
| 20260508000357 | 23 | 165 | 6.4 | 11.3 | 0.00 | 0.00 | 0.00 | 65 | 1014.0 |
| 20260507235354 | 23 | 212 | 8.0 | 16.1 | 0.00 | 0.00 | 0.00 | 65 | 1014.0 |
| 20260507234854 | 23 | 225 | 6.4 | 14.5 | 0.00 | 0.00 | 0.00 | 66 | 1013.9 |
| 20260507234349 | 23 | 218 | 8.0 | 14.5 | 0.00 | 0.00 | 0.00 | 65 | 1013.9 |
| 20260507233846 | 23 | 221 | 6.4 | 12.9 | 0.00 | 0.00 | 0.00 | 65 | 1014.0 |
| 20260507233346 | 23 | 163 | 6.4 | 14.5 | 0.00 | 0.00 | 0.00 | 67 | 1013.9 |
| 20260507232846 | 23 | 207 | 6.4 | 14.5 | 0.00 | 0.00 | 0.00 | 66 | 1014.0 |
| 20260507232345 | 23 | 205 | 8.0 | 16.1 | 0.00 | 0.00 | 0.00 | 65 | 1013.8 |
| 20260507231845 | 23 | 200 | 8.0 | 17.7 | 0.00 | 0.00 | 0.00 | 66 | 1013.9 |
| 20260507230846 | 23 | 159 | 9.7 | 16.1 | 0.00 | 0.00 | 0.00 | 65 | 1013.9 |
| 20260507230346 | 23 | 209 | 9.7 | 20.9 | 0.00 | 0.00 | 0.00 | 65 | 1014.1 |
| 20260507225846 | 23 | 157 | 8.0 | 20.9 | 0.00 | 0.00 | 0.00 | 64 | 1014.0 |
| 20260507225346 | 23 | 248 | 8.0 | 16.1 | 0.00 | 0.00 | 0.00 | 64 | 1014.0 |
| 20260507224845 | 23 | 169 | 8.0 | 16.1 | 0.00 | 0.00 | 0.00 | 65 | 1014.0 |
| 20260507224341 | 23 | 206 | 8.0 | 17.7 | 0.00 | 0.00 | 0.00 | 64 | 1014.0 |
| 20260507223841 | 23 | 140 | 8.0 | 17.7 | 0.00 | 0.00 | 0.00 | 64 | 1014.1 |
| 20260507223341 | 24 | 221 | 6.4 | 19.3 | 0.00 | 0.00 | 0.00 | 64 | 1014.1 |
| 20260507222841 | 24 | 147 | 6.4 | 19.3 | 0.00 | 0.00 | 0.00 | 64 | 1014.1 |
| 20260507222341 | 24 | 163 | 6.4 | 19.3 | 0.00 | 0.00 | 0.00 | 65 | 1014.1 |
| 20260507221842 | 24 | 212 | 8.0 | 19.3 | 0.00 | 0.00 | 0.00 | 65 | 1014.1 |
| 20260507221337 | 24 | 192 | 8.0 | 17.7 | 0.00 | 0.00 | 0.00 | 64 | 1014.1 |
| 20260507220830 | 23 | 221 | 8.0 | 14.5 | 0.00 | 0.00 | 0.00 | 66 | 1014.2 |
| 20260507220324 | 23 | 184 | 8.0 | 16.1 | 0.00 | 0.00 | 0.00 | 66 | 1014.2 |
| 20260507215818 | 23 | 186 | 8.0 | 16.1 | 0.00 | 0.00 | 0.00 | 65 | 1014.2 |
| 20260507215314 | 23 | 207 | 9.7 | 17.7 | 0.00 | 0.00 | 0.00 | 66 | 1014.5 |
| 20260507214806 | 23 | 203 | 9.7 | 19.3 | 0.00 | 0.00 | 0.00 | 66 | 1014.6 |
| 20260507214300 | 23 | 218 | 9.7 | 19.3 | 0.00 | 0.00 | 0.00 | 65 | 1014.7 |
| 20260507213754 | 23 | 172 | 9.7 | 17.7 | 0.00 | 0.00 | 0.00 | 64 | 1014.8 |
| 20260507213248 | 23 | 200 | 9.7 | 20.9 | 0.00 | 0.00 | 0.00 | 65 | 1014.8 |
| 20260507212742 | 24 | 163 | 8.0 | 20.9 | 0.00 | 0.00 | 0.00 | 64 | 1014.7 |
| 20260507212235 | 24 | 167 | 9.7 | 22.5 | 0.00 | 0.00 | 0.00 | 64 | 1014.7 |
| 20260507211730 | 23 | 178 | 11.3 | 22.5 | 0.00 | 0.00 | 0.00 | 64 | 1014.7 |
| 20260507211226 | 24 | 183 | 11.3 | 22.5 | 0.00 | 0.00 | 0.00 | 63 | 1014.7 |
| 20260507210718 | 24 | 190 | 9.7 | 22.5 | 0.00 | 0.00 | 0.00 | 64 | 1014.7 |
| 20260507210212 | 24 | 230 | 9.7 | 22.5 | 0.00 | 0.00 | 0.00 | 63 | 1014.7 |
| 20260507205705 | 24 | 206 | 9.7 | 22.5 | 0.00 | 0.00 | 0.00 | 63 | 1014.8 |
| 20260507205200 | 25 | 171 | 8.0 | 19.3 | 0.00 | 0.00 | 0.00 | 63 | 1014.8 |
| 20260507204148 | 24 | 210 | 8.0 | 20.9 | 0.00 | 0.00 | 0.00 | 64 | 1014.8 |
| 20260507203641 | 24 | 190 | 8.0 | 17.7 | 0.00 | 0.00 | 0.00 | 64 | 1014.9 |
| 20260507202629 | 23 | 189 | 9.7 | 22.5 | 0.00 | 0.00 | 0.00 | 65 | 1014.8 |
| 20260507202124 | 24 | 232 | 9.7 | 19.3 | 0.00 | 0.00 | 0.00 | 63 | 1014.8 |
| 20260507201112 | 24 | 194 | 6.4 | 19.3 | 0.00 | 0.00 | 0.00 | 64 | 1014.8 |
| 20260507200607 | 24 | 221 | 6.4 | 14.5 | 0.00 | 0.00 | 0.00 | 65 | 1014.9 |
| 20260507195048 | 24 | 232 | 8.0 | 20.9 | 0.00 | 0.00 | 0.00 | 63 | 1015.0 |
| 20260507194036 | 24 | 226 | 8.0 | 17.7 | 0.00 | 0.00 | 0.00 | 64 | 1015.2 |
| 20260507193531 | 23 | 244 | 8.0 | 16.1 | 0.00 | 0.00 | 0.00 | 63 | 1015.2 |
| 20260507192518 | 24 | 236 | 6.4 | 16.1 | 0.00 | 0.00 | 0.00 | 65 | 1015.3 |
| 20260507192012 | 23 | 238 | 8.0 | 19.3 | 0.00 | 0.00 | 0.00 | 64 | 1015.3 |
| 20260507191507 | 23 | 192 | 8.0 | 19.3 | 0.00 | 0.00 | 0.00 | 64 | 1015.4 |
| 20260507191000 | 23 | 271 | 6.4 | 16.1 | 0.00 | 0.00 | 0.00 | 63 | 1015.4 |
| 20260507190454 | 23 | 232 | 6.4 | 17.7 | 0.00 | 0.00 | 0.00 | 65 | 1015.4 |
| 20260507185948 | 23 | 248 | 6.4 | 17.7 | 0.00 | 0.00 | 0.00 | 63 | 1015.5 |
| 20260507185442 | 23 | 243 | 6.4 | 19.3 | 0.00 | 0.00 | 0.00 | 65 | 1015.5 |
| 20260507184936 | 23 | 186 | 4.8 | 19.3 | 0.00 | 0.00 | 0.00 | 65 | 1015.6 |
| 20260507184430 | 23 | 267 | 4.8 | 14.5 | 0.00 | 0.00 | 0.00 | 64 | 1015.6 |
| 20260507183924 | 23 | 217 | 6.4 | 16.1 | 0.00 | 0.00 | 0.00 | 65 | 1015.7 |
| 20260507182912 | 23 | 211 | 8.0 | 16.1 | 0.00 | 0.00 | 0.00 | 65 | 1015.7 |
| 20260507182407 | 23 | 267 | 4.8 | 12.9 | 0.00 | 0.00 | 0.00 | 66 | 1015.7 |
| 20260507181900 | 22 | 170 | 4.8 | 17.7 | 0.00 | 0.00 | 0.00 | 67 | 1015.7 |
| 20260507181354 | 22 | 225 | 6.4 | 17.7 | 0.00 | 0.00 | 0.00 | 67 | 1015.7 |
| 20260507180848 | 22 | 220 | 4.8 | 14.5 | 0.00 | 0.00 | 0.00 | 67 | 1015.8 |
| 20260507180342 | 22 | 219 | 3.2 | 9.7 | 0.00 | 0.00 | 0.00 | 67 | 1015.7 |
| 20260507175836 | 22 | 176 | 4.8 | 16.1 | 0.00 | 0.00 | 0.00 | 69 | 1015.8 |
| 20260507175330 | 21 | 227 | 6.4 | 16.1 | 0.00 | 0.00 | 0.00 | 69 | 1015.9 |
| 20260507174825 | 21 | 224 | 6.4 | 14.5 | 0.00 | 0.00 | 0.00 | 69 | 1016.0 |
| 20260507174318 | 21 | 223 | 4.8 | 14.5 | 0.00 | 0.00 | 0.00 | 69 | 1016.0 |
| 20260507173812 | 21 | 240 | 4.8 | 9.7 | 0.00 | 0.00 | 0.00 | 69 | 1016.0 |
| 20260507172800 | 20 | 242 | 1.6 | 12.9 | 0.00 | 0.00 | 0.00 | 70 | 1016.1 |
| 20260507172254 | 20 | 232 | 1.6 | 6.4 | 0.00 | 0.00 | 0.00 | 70 | 1016.1 |
| 20260507171748 | 20 | 232 | 1.6 | 4.8 | 0.00 | 0.00 | 0.00 | 71 | 1016.1 |
| 20260507170735 | 19 | 224 | 1.6 | 8.0 | 0.00 | 0.00 | 0.00 | 72 | 1016.1 |
| 20260507170230 | 19 | 224 | 3.2 | 8.0 | 0.00 | 0.00 | 0.00 | 73 | 1016.1 |
| 20260507165218 | 18 | 220 | 1.6 | 8.0 | 0.00 | 0.00 | 0.00 | 74 | 1016.0 |
| 20260507164712 | 18 | 272 | 1.6 | 4.8 | 0.00 | 0.00 | 0.00 | 74 | 1015.9 |
| 20260507164206 | 18 | 270 | 1.6 | 6.4 | 0.00 | 0.00 | 0.00 | 73 | 1015.9 |
| 20260507163700 | 18 | 276 | 3.2 | 6.4 | 0.00 | 0.00 | 0.00 | 75 | 1016.1 |
| 20260507162142 | 18 | 196 | 1.6 | 6.4 | 0.00 | 0.00 | 0.00 | 75 | 1016.0 |
| 20260507161636 | 17 | 195 | 1.6 | 6.4 | 0.00 | 0.00 | 0.00 | 77 | 1016.1 |
| 20260507161131 | 17 | 208 | 3.2 | 9.7 | 0.00 | 0.00 | 0.00 | 76 | 1016.0 |
| 20260507160624 | 17 | 186 | 3.2 | 9.7 | 0.00 | 0.00 | 0.00 | 78 | 1016.1 |
| 20260507160119 | 17 | 168 | 3.2 | 8.0 | 0.00 | 0.00 | 0.00 | 78 | 1016.0 |
| 20260507155615 | 17 | 184 | 1.6 | 8.0 | 0.00 | 0.00 | 0.00 | 79 | 1016.0 |
| 20260507154117 | 16 | 200 | 0.0 | 4.8 | 0.00 | 0.00 | 0.00 | 82 | 1016.3 |
| 20260507153615 | 16 | 244 | 0.0 | 0.0 | 0.00 | 0.00 | 0.00 | 81 | 1016.3 |
| 20260507153116 | 16 | 244 | 0.0 | 0.0 | 0.00 | 0.00 | 0.00 | 81 | 1016.3 |
| 20260507152613 | 16 | 243 | 0.0 | 0.0 | 0.00 | 0.00 | 0.00 | 80 | 1016.4 |
| 20260507152114 | 16 | 243 | 0.0 | 0.0 | 0.00 | 0.00 | 0.00 | 80 | 1016.4 |
| 20260507151614 | 16 | 243 | 0.0 | 3.2 | 0.00 | 0.00 | 0.00 | 80 | 1016.3 |
| 20260507151113 | 16 | 243 | 0.0 | 3.2 | 0.00 | 0.00 | 0.00 | 79 | 1016.4 |
| 20260507150614 | 17 | 242 | 0.0 | 3.2 | 0.00 | 0.00 | 0.00 | 77 | 1016.4 |
| 20260507150110 | 17 | 242 | 1.6 | 4.8 | 0.00 | 0.00 | 0.00 | 76 | 1016.4 |
| 20260507145113 | 18 | 194 | 0.0 | 0.0 | 0.00 | 0.00 | 0.00 | 73 | 1016.3 |
| 20260507144610 | 18 | 205 | 0.0 | 3.2 | 0.00 | 0.00 | 0.00 | 76 | 1016.2 |
| 20260507144110 | 17 | 205 | 0.0 | 3.2 | 0.00 | 0.00 | 0.00 | 79 | 1016.1 |
| 20260507143110 | 16 | 207 | 0.0 | 3.2 | 0.00 | 0.00 | 0.00 | 84 | 1016.1 |
| 20260507142608 | 15 | 207 | 0.0 | 3.2 | 0.00 | 0.00 | 0.00 | 87 | 1016.1 |
| 20260507141108 | 13 | 205 | 0.0 | 0.0 | 0.00 | 0.00 | 0.00 | 88 | 1015.8 |
| 20260507140107 | 13 | 205 | 0.0 | 0.0 | 0.00 | 0.00 | 0.00 | 89 | 1015.8 |
| 20260507135608 | 13 | 205 | 0.0 | 0.0 | 0.00 | 0.00 | 0.00 | 90 | 1015.7 |
| 20260507135107 | 13 | 205 | 0.0 | 0.0 | 0.00 | 0.00 | 0.00 | 91 | 1015.7 |
| 20260507134606 | 12 | 205 | 0.0 | 0.0 | 0.00 | 0.00 | 0.00 | 91 | 1015.7 |
| 20260507133606 | 12 | 205 | 0.0 | 3.2 | 0.00 | 0.00 | 0.00 | 91 | 1015.5 |
| 20260507133108 | 12 | 290 | 0.0 | 3.2 | 0.00 | 0.00 | 0.00 | 90 | 1015.4 |
| 20260507132603 | 12 | 283 | 0.0 | 3.2 | 0.00 | 0.00 | 0.00 | 91 | 1015.3 |
| 20260507132104 | 12 | 283 | 0.0 | 4.8 | 0.00 | 0.00 | 0.00 | 91 | 1015.3 |
| 20260507131604 | 12 | 283 | 0.0 | 4.8 | 0.00 | 0.00 | 0.00 | 91 | 1015.3 |
| 20260507131104 | 12 | 283 | 0.0 | 0.0 | 0.00 | 0.00 | 0.00 | 91 | 1015.4 |
| 20260507125601 | 12 | 336 | 0.0 | 0.0 | 0.00 | 0.00 | 0.00 | 91 | 1015.5 |
| 20260507125100 | 12 | 336 | 0.0 | 0.0 | 0.00 | 0.00 | 0.00 | 92 | 1015.4 |
| 20260507124059 | 12 | 336 | 0.0 | 0.0 | 0.00 | 0.00 | 0.00 | 91 | 1015.3 |
| 20260507123557 | 12 | 336 | 0.0 | 0.0 | 0.00 | 0.00 | 0.00 | 91 | 1015.3 |
| 20260507123057 | 12 | 336 | 0.0 | 0.0 | 0.00 | 0.00 | 0.00 | 91 | 1015.2 |
| 20260507122556 | 12 | 336 | 0.0 | 0.0 | 0.00 | 0.00 | 0.00 | 91 | 1015.2 |
| 20260507122059 | 12 | 336 | 0.0 | 0.0 | 0.00 | 0.00 | 0.00 | 91 | 1015.2 |
| 20260507121557 | 12 | 336 | 0.0 | 0.0 | 0.00 | 0.00 | 0.00 | 91 | 1015.1 |
| 20260507121056 | 12 | 336 | 0.0 | 0.0 | 0.00 | 0.00 | 0.00 | 91 | 1015.1 |
| 20260507120557 | 12 | 327 | 0.0 | 0.0 | 0.00 | 0.00 | 0.00 | 91 | 1015.2 |
| 20260507120056 | 12 | 300 | 0.0 | 0.0 | 0.00 | 0.00 | 0.00 | 91 | 1015.3 |
| 20260507115549 | 12 | 300 | 0.0 | 0.0 | 0.00 | 0.00 | 0.00 | 90 | 1015.2 |
| 20260507115048 | 12 | 300 | 0.0 | 0.0 | 0.00 | 0.00 | 0.00 | 90 | 1015.3 |
| 20260507114544 | 12 | 300 | 0.0 | 0.0 | 0.00 | 0.00 | 0.00 | 91 | 1015.3 |
| 20260507114044 | 12 | 300 | 0.0 | 0.0 | 0.00 | 0.00 | 0.00 | 90 | 1015.3 |
| 20260507113544 | 12 | 300 | 0.0 | 0.0 | 0.00 | 0.00 | 0.00 | 90 | 1015.3 |
| 20260507113044 | 12 | 300 | 0.0 | 0.0 | 0.00 | 0.00 | 0.00 | 90 | 1015.3 |
| 20260507112544 | 12 | 300 | 0.0 | 0.0 | 0.00 | 0.00 | 0.00 | 90 | 1015.4 |
| 20260507112043 | 12 | 300 | 0.0 | 0.0 | 0.00 | 0.00 | 0.00 | 90 | 1015.5 |
| 20260507111044 | 12 | 300 | 0.0 | 0.0 | 0.00 | 0.00 | 0.00 | 90 | 1015.5 |
| 20260507110540 | 12 | 300 | 0.0 | 0.0 | 0.00 | 0.00 | 0.00 | 90 | 1015.5 |
| 20260507110038 | 12 | 300 | 0.0 | 0.0 | 0.00 | 0.00 | 0.00 | 90 | 1015.6 |
| 20260507105540 | 12 | 300 | 0.0 | 0.0 | 0.00 | 0.00 | 0.00 | 91 | 1015.6 |
| 20260507105040 | 12 | 300 | 0.0 | 0.0 | 0.00 | 0.00 | 0.00 | 91 | 1015.5 |
| 20260507104539 | 12 | 300 | 0.0 | 0.0 | 0.00 | 0.00 | 0.00 | 91 | 1015.6 |
| 20260507104040 | 12 | 300 | 0.0 | 0.0 | 0.00 | 0.00 | 0.00 | 91 | 1015.6 |
| 20260507103538 | 12 | 300 | 0.0 | 0.0 | 0.00 | 0.00 | 0.00 | 91 | 1015.5 |
| 20260507103039 | 12 | 300 | 0.0 | 0.0 | 0.00 | 0.00 | 0.00 | 91 | 1015.6 |
| 20260507102540 | 12 | 300 | 0.0 | 0.0 | 0.00 | 0.00 | 0.00 | 91 | 1015.6 |
| 20260507101539 | 12 | 300 | 0.0 | 0.0 | 0.00 | 0.00 | 0.00 | 91 | 1015.5 |
| 20260507101040 | 13 | 300 | 0.0 | 0.0 | 0.00 | 0.00 | 0.00 | 91 | 1015.6 |
| 20260507100540 | 13 | 300 | 0.0 | 0.0 | 0.00 | 0.00 | 0.00 | 92 | 1015.6 |
| 20260507100038 | 13 | 300 | 0.0 | 0.0 | 0.00 | 0.00 | 0.00 | 92 | 1015.6 |
| 20260507095038 | 13 | 300 | 0.0 | 0.0 | 0.00 | 0.00 | 0.00 | 92 | 1015.6 |
| 20260507094540 | 13 | 300 | 0.0 | 0.0 | 0.00 | 0.00 | 0.00 | 92 | 1015.7 |
| 20260507093540 | 13 | 300 | 0.0 | 0.0 | 0.00 | 0.00 | 0.00 | 91 | 1015.8 |
| 20260507093038 | 13 | 300 | 0.0 | 0.0 | 0.00 | 0.00 | 0.00 | 91 | 1015.9 |
| 20260507092539 | 13 | 300 | 0.0 | 0.0 | 0.00 | 0.00 | 0.00 | 91 | 1015.9 |
| 20260507091038 | 13 | 300 | 0.0 | 0.0 | 0.00 | 0.00 | 0.00 | 90 | 1016.2 |
| 20260507090540 | 13 | 300 | 0.0 | 0.0 | 0.00 | 0.00 | 0.00 | 90 | 1016.2 |
| 20260507090040 | 13 | 300 | 0.0 | 0.0 | 0.00 | 0.00 | 0.00 | 89 | 1016.3 |
| 20260507085539 | 13 | 300 | 0.0 | 0.0 | 0.00 | 0.00 | 0.00 | 89 | 1016.4 |
| 20260507085031 | 13 | 300 | 0.0 | 0.0 | 0.00 | 0.00 | 0.00 | 89 | 1016.4 |
| 20260507084525 | 13 | 300 | 0.0 | 0.0 | 0.00 | 0.00 | 0.00 | 89 | 1016.5 |
| 20260507084024 | 13 | 300 | 0.0 | 0.0 | 0.00 | 0.00 | 0.00 | 89 | 1016.5 |
| 20260507083520 | 13 | 300 | 0.0 | 0.0 | 0.00 | 0.00 | 0.00 | 89 | 1016.5 |
| 20260507083016 | 13 | 300 | 0.0 | 0.0 | 0.00 | 0.00 | 0.00 | 89 | 1016.7 |
| 20260507082517 | 13 | 300 | 0.0 | 0.0 | 0.00 | 0.00 | 0.00 | 88 | 1016.6 |
| 20260507082018 | 13 | 300 | 0.0 | 0.0 | 0.00 | 0.00 | 0.00 | 88 | 1016.7 |
| 20260507081514 | 13 | 300 | 0.0 | 0.0 | 0.00 | 0.00 | 0.00 | 89 | 1016.8 |
| 20260507081013 | 13 | 300 | 0.0 | 0.0 | 0.00 | 0.00 | 0.00 | 88 | 1016.8 |
| 20260507080513 | 13 | 300 | 0.0 | 0.0 | 0.00 | 0.00 | 0.00 | 88 | 1016.7 |
| 20260507075509 | 14 | 300 | 0.0 | 0.0 | 0.00 | 0.00 | 0.00 | 88 | 1016.6 |
| 20260507075009 | 14 | 300 | 0.0 | 0.0 | 0.00 | 0.00 | 0.00 | 87 | 1016.6 |
| 20260507074509 | 14 | 300 | 0.0 | 0.0 | 0.00 | 0.00 | 0.00 | 87 | 1016.7 |
| 20260507074010 | 14 | 300 | 0.0 | 0.0 | 0.00 | 0.00 | 0.00 | 87 | 1016.7 |
| 20260507073507 | 14 | 300 | 0.0 | 0.0 | 0.00 | 0.00 | 0.00 | 87 | 1016.5 |
| 20260507073006 | 14 | 300 | 0.0 | 0.0 | 0.00 | 0.00 | 0.00 | 86 | 1016.4 |
| 20260507072507 | 14 | 300 | 0.0 | 0.0 | 0.00 | 0.00 | 0.00 | 86 | 1016.6 |
| 20260507072001 | 14 | 300 | 0.0 | 0.0 | 0.00 | 0.00 | 0.00 | 86 | 1016.6 |
| 20260507071459 | 14 | 300 | 0.0 | 0.0 | 0.00 | 0.00 | 0.00 | 85 | 1016.6 |
| 20260507070958 | 14 | 300 | 0.0 | 0.0 | 0.00 | 0.00 | 0.00 | 85 | 1016.6 |
| 20260507070458 | 14 | 300 | 0.0 | 0.0 | 0.00 | 0.00 | 0.00 | 85 | 1016.8 |
| 20260507065455 | 15 | 300 | 0.0 | 0.0 | 0.00 | 0.00 | 0.00 | 85 | 1016.8 |
| 20260507064952 | 15 | 300 | 0.0 | 0.0 | 0.00 | 0.00 | 0.00 | 85 | 1016.7 |
| 20260507064454 | 15 | 300 | 0.0 | 0.0 | 0.00 | 0.00 | 0.00 | 84 | 1016.8 |
| 20260507063950 | 15 | 300 | 0.0 | 0.0 | 0.00 | 0.00 | 0.00 | 84 | 1016.8 |
| 20260507063451 | 15 | 300 | 0.0 | 0.0 | 0.00 | 0.00 | 0.00 | 84 | 1016.8 |
| 20260507062951 | 15 | 300 | 0.0 | 0.0 | 0.00 | 0.00 | 0.00 | 84 | 1016.8 |
| 20260507062452 | 15 | 300 | 0.0 | 0.0 | 0.00 | 0.00 | 0.00 | 84 | 1016.9 |
| 20260507061949 | 15 | 300 | 0.0 | 0.0 | 0.00 | 0.00 | 0.00 | 84 | 1016.8 |
| 20260507061447 | 15 | 300 | 0.0 | 0.0 | 0.00 | 0.00 | 0.00 | 83 | 1016.9 |
| 20260507060946 | 15 | 300 | 0.0 | 0.0 | 0.00 | 0.00 | 0.00 | 83 | 1016.9 |
| 20260507055944 | 15 | 300 | 0.0 | 0.0 | 0.00 | 0.00 | 0.00 | 83 | 1016.9 |
| 20260507055445 | 15 | 300 | 0.0 | 0.0 | 0.00 | 0.00 | 0.00 | 82 | 1017.0 |
| 20260507054939 | 15 | 300 | 0.0 | 0.0 | 0.00 | 0.00 | 0.00 | 82 | 1016.9 |